User: anonymous   Login
Location: Drayton Valley
(53.2170°N, 114.9830°W)
Time: 20:44:03
(UTC-06:00)
Language:

Cosmos 1302 Rocket - Orbit

View from above orbital plane
View from above orbital plane
View from above satellite
View from above satellite

Ground track
Ground track

The orbit data is extracted from the following two-line orbital elements,

1 12792U 81084B   15142.12077632  .00000206  00000-0  77832-4 0  9992
2 12792 074.0298 348.8947 0012835 099.5253 009.4118 14.37308323766284
Epoch (UTC): 22 May 2015 02:53:55
Eccentricity: 0.0012835
inclination: 74.0298°
perigee height: 758 km
apogee height: 776 km
right ascension of ascending node: 348.8947°
argument of perigee: 99.5253°
revolutions per day: 14.37308323
mean anomaly at epoch: 9.4118°
orbit number at epoch: 76628

The dashed part of the orbit path shows where the satellite is in the earth's shadow,  

DLR